When you browse on this site, cookies collect data to enhance your experience and personalize the content and advertising you see.
Visit our Privacy Policy to learn more. By continuing to use the site, you agree to this use of cookies and data.
  • In Austria
  • List of Countries
  • For 7 days
  • Water Temperature
  • Satellite Maps
  • Weather Map
  • News
  • Weather Widgets
  • user-avatar
    Login

    Hourly Weather Rivne

    Today, 10 December, Monday

    Time Temperature Precipitation Wind Pressure Humidity
    00:00 +5°C° 0 mm 3 mps 751 mmHg 80%
    01:00 +5°C° 0 mm 3 mps 750 mmHg 79%
    02:00 +6°C° 0 mm 2 mps 750 mmHg 80%
    03:00 +6°C° 0.2 mm 2 mps 749 mmHg 80%
    04:00 +6°C° 0.2 mm 2 mps 749 mmHg 79%
    05:00 +6°C° 0.2 mm 2 mps 749 mmHg 79%
    06:00 +6°C° 0.2 mm 2 mps 749 mmHg 79%
    07:00 +7°C° 0.2 mm 1 mps 749 mmHg 80%
    08:00 +8°C° 0 mm 1 mps 748 mmHg 79%
    09:00 +8°C° 0.3 mm 1 mps 748 mmHg 78%
    10:00 +8°C° 0.3 mm 1 mps 748 mmHg 78%
    11:00 +8°C° 0.3 mm 2 mps 748 mmHg 77%
    12:00 +9°C° 0.1 mm 1 mps 748 mmHg 78%
    13:00 +9°C° 0.1 mm 1 mps 748 mmHg 79%
    14:00 +9°C° 0.1 mm 1 mps 748 mmHg 79%
    15:00 +9°C° 0 mm 1 mps 748 mmHg 82%
    16:00 +9°C° 0 mm 1 mps 749 mmHg 85%
    17:00 +8°C° 0 mm 1 mps 749 mmHg 88%
    18:00 +8°C° 0 mm 1 mps 749 mmHg 89%
    19:00 +7°C° 0 mm 1 mps 749 mmHg 91%
    20:00 +7°C° 0 mm 1 mps 749 mmHg 92%
    21:00 +7°C° 0 mm 1 mps 749 mmHg 93%
    22:00 +7°C° 0 mm 1 mps 749 mmHg 93%
    23:00 +7°C° 0 mm 1 mps 749 mmHg 94%

    Tomorrow, 11 December, Tuesday

    Time Temperature Precipitation Wind Pressure Humidity
    00:00 +6°C° 0 mm 2 mps 749 mmHg 94%
    01:00 +5°C° 0 mm 3 mps 748 mmHg 94%
    02:00 +5°C° 0 mm 3 mps 748 mmHg 94%
    03:00 +5°C° 0.2 mm 4 mps 747 mmHg 93%
    04:00 +5°C° 0.2 mm 5 mps 746 mmHg 93%
    05:00 +4°C° 0.2 mm 6 mps 746 mmHg 93%
    06:00 +5°C° 1.9 mm 7 mps 745 mmHg 93%
    07:00 +5°C° 1.9 mm 7 mps 744 mmHg 93%
    08:00 +5°C° 1.9 mm 8 mps 744 mmHg 94%
    09:00 +6°C° 0.6 mm 7 mps 743 mmHg 92%
    10:00 +6°C° 0.6 mm 7 mps 743 mmHg 91%
    11:00 +8°C° 0.6 mm 6 mps 743 mmHg 90%
    12:00 +8°C° 1.8 mm 6 mps 742 mmHg 92%
    13:00 +7°C° 1.8 mm 6 mps 742 mmHg 93%
    14:00 +7°C° 1.8 mm 6 mps 741 mmHg 95%
    15:00 +7°C° 2 mm 6 mps 741 mmHg 95%
    16:00 +5°C° 2 mm 7 mps 741 mmHg 94%
    17:00 +5°C° 2 mm 7 mps 742 mmHg 93%
    18:00 +4°C° 0.8 mm 8 mps 742 mmHg 90%
    19:00 +2°C° 0.8 mm 10 mps 743 mmHg 87%
    20:00 +2°C° 0.8 mm 11 mps 743 mmHg 85%
    21:00 +2°C° 0.8 mm 11 mps 744 mmHg 84%
    22:00 +2°C° 0.8 mm 11 mps 745 mmHg 82%
    23:00 0°C° 0.8 mm 12 mps 745 mmHg 81%

    Day after tomorrow, 12 December, Wednesday

    Time Temperature Precipitation Wind Pressure Humidity
    00:00 +2°C° 0.3 mm 11 mps 746 mmHg 80%
    01:00 +2°C° 0.3 mm 11 mps 747 mmHg 79%
    02:00 +2°C° 0.3 mm 11 mps 748 mmHg 78%
    03:00 +2°C° 0 mm 10 mps 749 mmHg 78%
    04:00 +2°C° 0 mm 9 mps 749 mmHg 77%
    05:00 +2°C° 0 mm 8 mps 750 mmHg 77%
    06:00 +2°C° 0 mm 8 mps 750 mmHg 78%
    07:00 +2°C° 0 mm 7 mps 751 mmHg 78%
    08:00 +2°C° 0 mm 6 mps 752 mmHg 79%
    09:00 +3°C° 0 mm 6 mps 752 mmHg 75%
    10:00 +3°C° 0 mm 6 mps 752 mmHg 70%
    11:00 +4°C° 0 mm 6 mps 753 mmHg 66%
    12:00 +4°C° 0 mm 6 mps 753 mmHg 65%
    13:00 +4°C° 0 mm 6 mps 753 mmHg 64%
    14:00 +4°C° 0 mm 6 mps 753 mmHg 63%
    15:00 +5°C° 0 mm 5 mps 753 mmHg 67%
    16:00 +4°C° 0 mm 4 mps 754 mmHg 71%
    17:00 +3°C° 0 mm 3 mps 754 mmHg 75%
    18:00 +3°C° 0 mm 3 mps 754 mmHg 76%
    19:00 +3°C° 0 mm 3 mps 755 mmHg 76%
    20:00 +2°C° 0 mm 3 mps 755 mmHg 77%
    21:00 +2°C° 0 mm 3 mps 756 mmHg 77%
    22:00 +2°C° 0 mm 3 mps 756 mmHg 77%
    23:00 +2°C° 0 mm 3 mps 756 mmHg 77%

    13 December, Thursday

    Time Temperature Precipitation Wind Pressure Humidity
    00:00 +2°C° 0 mm 3 mps 756 mmHg 78%
    01:00 +1°C° 0 mm 3 mps 756 mmHg 78%
    02:00 +1°C° 0 mm 3 mps 756 mmHg 78%
    03:00 +1°C° 0 mm 3 mps 757 mmHg 79%
    04:00 +1°C° 0 mm 3 mps 757 mmHg 79%
    05:00 +1°C° 0 mm 3 mps 757 mmHg 79%
    06:00 +1°C° 0 mm 3 mps 757 mmHg 80%
    07:00 +1°C° 0 mm 3 mps 758 mmHg 80%
    08:00 +2°C° 0 mm 3 mps 758 mmHg 80%
    09:00 +3°C° 0.1 mm 3 mps 758 mmHg 75%
    10:00 +4°C° 0.1 mm 4 mps 758 mmHg 69%
    11:00 +5°C° 0.1 mm 4 mps 758 mmHg 64%
    12:00 +5°C° 0.2 mm 5 mps 758 mmHg 63%
    13:00 +6°C° 0.2 mm 5 mps 758 mmHg 62%
    14:00 +6°C° 0.2 mm 5 mps 758 mmHg 61%
    15:00 +5°C° 0.1 mm 4 mps 758 mmHg 65%
    16:00 +4°C° 0.1 mm 4 mps 758 mmHg 70%
    17:00 +3°C° 0.1 mm 3 mps 758 mmHg 74%
    18:00 +3°C° 0.1 mm 3 mps 758 mmHg 75%
    19:00 +3°C° 0.1 mm 3 mps 759 mmHg 76%
    20:00 +2°C° 0.1 mm 3 mps 759 mmHg 77%
    21:00 +2°C° 0 mm 3 mps 759 mmHg 77%
    22:00 +2°C° 0 mm 3 mps 759 mmHg 77%
    23:00 +2°C° 0 mm 3 mps 759 mmHg 77%

    14 December, Friday

    Time Temperature Precipitation Wind Pressure Humidity
    00:00 +3°C° 0 mm 2 mps 759 mmHg 77%
    01:00 +3°C° 0 mm 2 mps 759 mmHg 77%
    02:00 +3°C° 0 mm 2 mps 759 mmHg 77%
    03:00 +3°C° 0 mm 2 mps 759 mmHg 77%
    04:00 +3°C° 0 mm 2 mps 759 mmHg 77%
    05:00 +4°C° 0 mm 1 mps 759 mmHg 77%
    06:00 +5°C° 0 mm 1 mps 759 mmHg 77%
    07:00 +5°C° 0 mm 1 mps 759 mmHg 77%
    08:00 +5°C° 0 mm 1 mps 759 mmHg 77%
    09:00 +6°C° 0.1 mm 1 mps 760 mmHg 74%
    10:00 +7°C° 0.1 mm 1 mps 760 mmHg 71%
    11:00 +7°C° 0.1 mm 1 mps 760 mmHg 68%
    12:00 +7°C° 0.1 mm 1 mps 761 mmHg 69%
    13:00 +7°C° 0.1 mm 1 mps 761 mmHg 69%
    14:00 +6°C° 0.1 mm 2 mps 761 mmHg 69%
    15:00 +7°C° 0.1 mm 1 mps 762 mmHg 73%
    16:00 +6°C° 0.1 mm 1 mps 762 mmHg 77%
    17:00 +5°C° 0.1 mm 1 mps 762 mmHg 80%
    18:00 +5°C° 0.1 mm 1 mps 763 mmHg 82%
    19:00 +4°C° 0.1 mm 2 mps 763 mmHg 83%
    20:00 +3°C° 0.1 mm 2 mps 763 mmHg 85%
    21:00 +3°C° 0 mm 2 mps 764 mmHg 86%
    22:00 +2°C° 0 mm 2 mps 764 mmHg 87%
    23:00 +2°C° 0 mm 2 mps 764 mmHg 88%

    15 December, Saturday

    Time Temperature Precipitation Wind Pressure Humidity
    00:00 +1°C° 0 mm 2 mps 765 mmHg 88%
    01:00 +1°C° 0 mm 2 mps 765 mmHg 88%
    02:00 +1°C° 0 mm 2 mps 765 mmHg 88%
    03:00 -1°C° 0 mm 2 mps 765 mmHg 88%
    04:00 -1°C° 0 mm 2 mps 765 mmHg 88%
    05:00 -1°C° 0 mm 2 mps 766 mmHg 88%
    06:00 -1°C° 0 mm 2 mps 766 mmHg 87%
    07:00 -1°C° 0 mm 2 mps 767 mmHg 87%
    08:00 -1°C° 0 mm 2 mps 767 mmHg 87%
    09:00 +1°C° 0 mm 2 mps 767 mmHg 82%
    10:00 +2°C° 0 mm 2 mps 768 mmHg 77%
    11:00 +3°C° 0 mm 2 mps 768 mmHg 72%
    12:00 +3°C° 0 mm 2 mps 768 mmHg 71%
    13:00 +3°C° 0 mm 2 mps 768 mmHg 70%
    14:00 +3°C° 0 mm 2 mps 768 mmHg 69%
    15:00 +3°C° 0 mm 2 mps 768 mmHg 74%
    16:00 +2°C° 0 mm 2 mps 768 mmHg 78%
    17:00 +1°C° 0 mm 2 mps 769 mmHg 83%
    18:00 +1°C° 0 mm 2 mps 769 mmHg 83%
    19:00 +1°C° 0 mm 2 mps 769 mmHg 84%
    20:00 +1°C° 0 mm 2 mps 769 mmHg 84%
    21:00 +1°C° 0 mm 2 mps 769 mmHg 84%
    22:00 +1°C° 0 mm 2 mps 769 mmHg 84%
    23:00 +1°C° 0 mm 2 mps 770 mmHg 83%
    Show more